Weather Roundup
Issued by NWS Springfield, MO

Home | Current Version | Previous Version | Text Only | Print | Product List | Glossary On
Versions: 1 2 3 4 5 6 7 8 9 10 11 12 13 14 15 16 17 18 19 20 21 22 23 24 25 26 27 28 29 30 31 32 33 34 35 36 37 38 39 40 41 42 43 44 45 46 47 48 49 50
000
NZUS99 KSGF 211307
HRRSGF

HOURLY WEATHER
NATIONAL WEATHER SERVICE SPRINGFIELD MO
700 AM CST FRI NOV 21 2014

......SGF CWA......

CITY           SKY/WX    TMP DP  RH WIND       PRES   REMARKS
SPRINGFIELD    CLOUDY    42  24  49 SE18      30.21R
JOPLIN         LGT RAIN  41  38  89 SE12      30.18R
WEST PLAINS    CLOUDY    34  23  64 E8        30.30R WCI  27
ROLLA          CLEAR     25  17  72 E18       30.28S WCI  11
OSAGE BEACH    PTCLDY    25  18  74 E6        30.28R WCI  18
BRANSON        CLOUDY    39  27  60 E9        30.24R WCI  33

......SURROUNDING SGF CWA......

CITY           SKY/WX    TMP DP  RH WIND       PRES   REMARKS
CHANUTE        CLOUDY    33  25  72 E8        30.16S WCI  26
PARSONS        CLOUDY    35  34  96 VRB5      30.16R FOG     WCI  31
COFFEYVILLE    CLOUDY    38  36  92 NE6       30.14F FOG     WCI  33
EMPORIA        CLEAR     22  18  85 E6        30.16S WCI  14
GROVE OK       MOCLDY    45  37  76 E6        30.16S
ROGERS AR      CLOUDY    42  33  70 E14       30.18S
SILOAM SPRINGS CLOUDY    46  36  66 E7        30.17R
HARRISON AR    CLOUDY    40  27  59 SE10      30.23R WCI  33
NEAR YELLVILLE CLOUDY    43  25  49 E3        30.27R

......KANSAS AND MISSOURI......

CITY           SKY/WX    TMP DP  RH WIND       PRES   REMARKS
KANSAS CTY INT PTCLDY    24  16  71 E13       30.24R WCI  12
DOWNTOWN KC    CLEAR     25  16  68 E9        30.25S WCI  15
COLUMBIA       CLEAR     24  15  68 E12       30.31R WCI  13
SEDALIA        CLEAR     26  18  71 E12       30.28S WCI  16
ST JOSEPH      CLEAR     21  14  74 SE3       30.27R
ST LOUIS       PTCLDY    24  14  65 E10       30.40R WCI  14
SPIRIT OF STL  CLEAR     20  13  74 E5        30.39S WCI  13
KIRKSVILLE     PTCLDY    17  12  80 E8        30.33R WCI   7
WICHITA        CLOUDY    36  26  67 E7        30.10R WCI  30
TOPEKA         CLEAR     25  17  72 E8        30.21F WCI  16
OLATHE         CLEAR     26  17  68 E8        30.21S WCI  18

......TENNESSEE......

CITY           SKY/WX    TMP DP  RH WIND       PRES   REMARKS
MEMPHIS        LGT RAIN  43  36  75 E7        30.33R FOG
NASHVILLE      PTCLDY    33  24  69 E5        30.44R WCI  29

......ARKANSAS.......

CITY           SKY/WX    TMP DP  RH WIND       PRES   REMARKS
FAYETTEVILLE   CLOUDY    47  43  86 E5        30.18R
FT SMITH       CLOUDY    47  35  63 E13       30.20R
LITTLE ROCK    LGT RAIN  43  39  86 NE3       30.28R FOG

......OKLAHOMA.......

CITY           SKY/WX    TMP DP  RH WIND       PRES   REMARKS
TULSA          LGT RAIN  43  40  89 CALM      30.11R
PONCA CITY     CLOUDY    40  37  89 E7        30.09R FOG
MCALESTER      CLOUDY    56  53  90 VRB3      30.12R
OKLAHOMA CITY  CLOUDY    54  50  86 SE8       30.04R FOG

......IOWA............

CITY           SKY/WX    TMP DP  RH WIND       PRES   REMARKS
DES MOINES     PTCLDY    16   8  71 SE10      30.29F WCI   4
QUAD CITIES    PTCLDY     9   3  77 E7        30.39S WCI  -2

......ILLINOIS........

CITY           SKY/WX    TMP DP  RH WIND       PRES   REMARKS
QUINCY         CLEAR     17   9  70 SE9       30.38R WCI   6
CHICAGO        PTCLDY     9   3  77 CALM      30.42R



USA.gov is the U.S. government's official web portal to all federal, state and local government web resources and services.